Location: Fort Worth, Tx
(32.7431°N, 97.3695°W)
Time: 05:55:52
(UTC-05:00)

Tiros 1 - Pass Details

Date: 21 November 2024
Orbit: 622 x 653 km, 48.4° (Epoch: 05 December)

Event Time Altitude Azimuth Distance (km) Brightness Sun altitude
Rises 19:04:09 0° 315° (NW) 2,950 10.9 -8.5°
Reaches altitude 10° 19:07:37 10° 341° (NNW) 2,046 9.7 -9.2°
Maximum altitude 19:10:03 14° 13° (NNE) 1,803 9.2 -9.6°
Drops below altitude 10° 19:12:30 10° 44° (NE) 2,052 9.2 -10.1°
Enters shadow 19:12:32 10° 44° (NE) 2,058 9.2 -10.1°
